FW3809 Weather Reports


Display with metric or nautical units.
time (UTC)temp
F
wind
direction
speed
MPH
gust
MPH
rain 1hr
in
rain 24hr
in
rain mn
in
humidity
%
barometer
mb
20260503032530 65 31 0.0 0.0 0.00 0.00 0.00 73 1019.6
20260503032031 65 31 0.0 0.0 0.00 0.00 0.00 73 1019.5
20260503031506 66 31 0.0 0.0 0.00 0.00 0.00 72 1019.5
20260503031004 66 31 0.0 0.0 0.00 0.01 0.00 72 1019.5
20260503030502 66 31 0.0 0.0 0.00 0.01 0.00 72 1019.5
20260503030232 67 31 0.0 0.0 0.00 0.01 0.00 70 1019.5
20260503025440 67 31 0.0 0.0 0.00 0.01 0.00 69 1019.5
20260503024939 67 31 0.0 0.0 0.00 0.01 0.00 69 1019.5
20260503024434 67 31 0.0 0.0 0.00 0.01 0.00 68 1019.5
20260503023932 67 31 0.0 0.0 0.00 0.01 0.00 68 1019.4
20260503023405 68 31 0.0 0.0 0.00 0.01 0.00 68 1019.3
20260503022844 68 31 0.0 0.0 0.00 0.01 0.00 68 1019.3
20260503022313 68 31 0.0 0.0 0.00 0.01 0.00 66 1019.2
20260503021810 69 31 0.0 0.0 0.00 0.01 0.00 65 1019.2
20260503021306 69 31 0.0 0.0 0.00 0.02 0.00 65 1019.2
20260503021013 69 31 0.0 0.0 0.00 0.03 0.00 64 1019.2
20260503020236 70 31 0.0 0.0 0.00 0.03 0.00 62 1019.3
20260503015715 70 31 0.0 0.0 0.00 0.04 0.00 61 1019.1
20260503015151 71 31 0.0 1.0 0.00 0.04 0.00 60 1019.0
20260503014855 71 31 0.0 2.0 0.00 0.04 0.00 59 1018.8
20260503014050 71 31 1.0 3.0 0.00 0.04 0.00 58 1018.8
20260503013548 71 31 1.0 3.0 0.00 0.04 0.00 57 1018.7
20260503013252 72 31 1.0 4.0 0.00 0.05 0.00 56 1018.6
20260503012501 72 31 2.0 8.0 0.00 0.05 0.00 56 1018.6
20260503011951 72 35 2.0 5.0 0.00 0.06 0.00 56 1018.6
20260503011424 73 33 2.0 5.0 0.00 0.08 0.00 55 1018.6
20260503010925 73 34 3.0 8.0 0.00 0.09 0.00 54 1018.6
20260503010428 73 26 3.0 8.0 0.00 0.09 0.00 54 1018.5
20260503005916 73 14 3.0 8.0 0.00 0.09 0.00 54 1018.4
20260503005348 74 16 3.0 7.0 0.00 0.09 0.00 53 1018.3
20260503004845 74 4 3.0 8.0 0.00 0.09 0.00 52 1018.3
20260503004320 74 34 4.0 9.0 0.00 0.10 0.00 52 1018.2
20260503003752 75 50 5.0 10.0 0.00 0.10 0.00 51 1018.1
20260503003522 75 30 5.0 11.0 0.00 0.10 0.00 50 1018.0
20260503003001 76 16 5.0 14.0 0.00 0.10 0.00 50 1018.0
20260503002219 76 343 4.0 14.0 0.00 0.11 0.00 50 1018.0
20260503001651 76 49 4.0 11.0 0.00 0.12 0.00 50 1017.9
20260503001159 76 25 6.0 11.0 0.00 0.13 0.00 49 1017.9
20260503000623 76 28 7.0 15.0 0.00 0.15 0.00 49 1017.8
20260503000118 76 45 7.0 15.0 0.00 0.17 0.00 49 1017.8
20260502235553 77 21 6.0 14.0 0.00 0.19 0.00 48 1017.8
20260502235027 77 23 5.0 13.0 0.00 0.20 0.00 47 1017.7
20260502234523 77 27 5.0 13.0 0.00 0.21 0.00 47 1017.7
20260502234228 77 4 6.0 13.0 0.00 0.21 0.00 47 1017.7
20260502233453 77 354 7.0 15.0 0.00 0.22 0.00 48 1017.7
20260502232950 77 8 7.0 15.0 0.00 0.25 0.00 47 1017.7
20260502232447 77 41 6.0 16.0 0.00 0.25 0.00 47 1017.7
20260502231921 78 61 6.0 16.0 0.00 0.27 0.00 48 1017.7
20260502231416 77 4 7.0 13.0 0.00 0.29 0.00 47 1017.7
20260502230916 77 57 9.0 21.0 0.00 0.32 0.00 47 1017.7
20260502230346 77 36 8.0 21.0 0.00 0.32 0.00 47 1017.6
20260502225845 78 21 8.0 15.0 0.00 0.32 0.00 47 1017.5
20260502225323 78 37 8.0 18.0 0.00 0.32 0.00 47 1017.6
20260502225056 78 18 7.0 18.0 0.00 0.32 0.00 47 1017.6
20260502224526 78 19 6.0 14.0 0.00 0.32 0.00 47 1017.5
20260502223754 79 30 7.0 14.0 0.00 0.32 0.00 47 1017.5
20260502223250 79 9 7.0 13.0 0.00 0.32 0.00 48 1017.6
20260502223020 79 35 6.0 11.0 0.00 0.32 0.00 47 1017.6
20260502222221 79 22 6.0 12.0 0.00 0.33 0.00 47 1017.7
20260502221658 78 15 9.0 17.0 0.00 0.33 0.00 48 1017.7
20260502221148 79 32 8.0 17.0 0.00 0.33 0.00 47 1017.7
20260502220648 79 337 5.0 15.0 0.00 0.34 0.00 47 1017.7
20260502220133 79 27 6.0 15.0 0.00 0.36 0.00 47 1017.7
20260502215837 79 354 6.0 15.0 0.00 0.37 0.00 47 1017.7
20260502215052 79 32 6.0 16.0 0.00 0.39 0.00 47 1017.7
20260502214553 79 354 6.0 16.0 0.00 0.40 0.00 47 1017.7
20260502214053 79 49 7.0 16.0 0.00 0.42 0.00 48 1017.7
20260502213806 79 8 8.0 16.0 0.00 0.55 0.00 45 1017.9
20260502213036 79 30 7.0 17.0 0.00 0.60 0.00 46 1017.9
20260502212741 79 359 7.0 17.0 0.00 0.65 0.00 46 1017.9
20260502212240 79 15 7.0 16.0 0.00 0.67 0.00 47 1017.8
20260502211455 79 23 7.0 16.0 0.00 0.67 0.00 47 1017.9
20260502210926 79 359 7.0 14.0 0.00 0.68 0.00 47 1017.9
20260502210404 79 29 6.0 14.0 0.00 0.68 0.00 47 1018.0
20260502205842 79 25 6.0 17.0 0.00 0.69 0.00 47 1018.1
20260502205321 78 35 8.0 17.0 0.00 0.70 0.00 46 1018.1
20260502204754 79 17 9.0 18.0 0.00 0.71 0.00 47 1018.1
20260502204522 79 4 6.0 18.0 0.00 0.73 0.00 47 1018.1
20260502203726 79 38 5.0 11.0 0.00 0.74 0.00 48 1018.1
20260502203158 78 34 8.0 13.0 0.00 0.76 0.00 47 1018.2
20260502202644 78 21 8.0 16.0 0.00 0.84 0.00 48 1018.3
20260502202129 78 57 6.0 16.0 0.00 0.86 0.00 50 1018.4
20260502201628 78 11 7.0 13.0 0.00 0.87 0.00 50 1018.4
20260502201332 78 33 7.0 14.0 0.00 0.87 0.00 49 1018.6
20260502200533 78 23 6.0 14.0 0.00 0.87 0.00 49 1018.5
20260502200029 79 28 6.0 14.0 0.00 0.88 0.00 47 1018.6
20260502195529 79 8 6.0 15.0 0.00 0.88 0.00 49 1018.6
20260502195507 79 22 4.0 15.0 0.00 0.88 0.00 49 1018.8
20260502194730 78 14 4.0 14.0 0.00 0.90 0.00 50 1018.7
20260502193930 78 291 7.0 18.0 0.00 0.90 0.00 50 1018.8
20260502193635 77 10 8.0 18.0 0.00 0.90 0.00 50 1019.1
20260502193108 77 359 9.0 16.0 0.00 0.92 0.00 49 1019.1
20260502192333 77 4 7.0 15.0 0.00 0.94 0.00 50 1019.1
20260502192039 77 56 7.0 14.0 0.00 0.94 0.00 51 1019.2
20260502191242 76 339 9.0 18.0 0.00 0.94 0.00 52 1019.2
20260502191008 76 354 10.0 18.0 0.00 0.94 0.00 52 1019.1
20260502190217 76 19 10.0 18.0 0.00 0.94 0.00 49 1019.1
20260502185647 76 14 10.0 18.0 0.00 0.95 0.00 51 1019.2
20260502185119 76 41 9.0 18.0 0.00 1.01 0.00 50 1019.3
20260502184853 77 27 8.0 18.0 0.00 1.28 0.00 51 1019.3
20260502184049 76 12 8.0 17.0 0.00 1.37 0.00 52 1019.4
20260502183551 76 34 7.0 17.0 0.00 1.37 0.00 51 1019.4
20260502183019 76 345 7.0 17.0 0.00 1.38 0.00 53 1019.4
20260502182516 76 341 7.0 17.0 0.00 1.41 0.00 51 1019.5
20260502182017 76 15 7.0 17.0 0.00 1.48 0.00 52 1019.7
20260502181510 75 12 7.0 17.0 0.00 1.61 0.00 53 1019.7
20260502180953 74 30 8.0 17.0 0.00 1.70 0.00 53 1019.8
20260502180423 74 11 10.0 24.0 0.00 1.73 0.00 53 1019.9
20260502180418 74 51 10.0 17.0 0.00 1.73 0.00 53 1019.9
20260502170124 72 345 10.0 20.0 0.00 1.80 0.00 61 1020.2
20260502164033 71 55 8.0 17.0 0.00 1.80 0.00 63 1020.1
20260502163737 71 12 10.0 17.0 0.00 1.81 0.00 65 1020.2
20260502163218 71 4 10.0 21.0 0.00 1.83 0.00 64 1020.2
20260502162421 70 43 9.0 21.0 0.00 1.91 0.00 63 1020.2
20260502162148 70 354 9.0 17.0 0.00 1.95 0.00 66 1020.1
20260502161625 70 354 8.0 18.0 0.00 1.98 0.00 67 1020.2
20260502160852 70 4 8.0 19.0 0.00 2.02 0.00 67 1020.1
20260502160622 70 338 9.0 19.0 0.00 2.06 0.00 67 1020.0
20260502152257 67 4 8.0 16.0 0.00 2.07 0.00 76 1020.0
20260502152011 66 23 7.0 15.0 0.00 2.07 0.00 76 1020.0
20260502151511 66 4 8.0 18.0 0.00 2.07 0.00 77 1020.0
20260502151314 65 48 8.0 18.0 0.00 2.07 0.00 77 1020.0
20260502150451 65 354 7.0 16.0 0.00 2.07 0.00 79 1020.0
20260502130743 57 4 4.0 12.0 0.00 2.14 0.00 95 1018.7
20260502130240 56 22 5.0 12.0 0.00 2.15 0.00 95 1018.7
20260502123621 55 37 4.0 11.0 0.00 2.15 0.00 97 1018.4
20260502123028 55 17 4.0 10.0 0.00 2.15 0.00 97 1018.2
20260502122501 54 349 4.0 11.0 0.00 2.16 0.00 97 1018.1
20260502121934 54 13 5.0 11.0 0.00 2.16 0.00 97 1018.0
20260502121431 54 16 5.0 10.0 0.00 2.16 0.00 97 1018.0
20260502120909 53 11 4.0 9.0 0.00 2.16 0.00 97 1018.0
20260502120402 53 4 3.0 8.0 0.00 2.16 0.00 97 1018.2
20260502115834 53 4 3.0 8.0 0.00 2.16 0.00 97 1018.0
20260502115334 53 23 3.0 8.0 0.00 2.16 0.00 96 1018.0
20260502114811 53 359 2.0 8.0 0.00 2.16 0.00 96 1018.0
20260502114300 53 15 1.0 6.0 0.00 2.16 0.00 96 1018.0
20260502113757 53 15 3.0 8.0 0.00 2.16 0.00 96 1017.8
20260502113232 53 14 3.0 8.0 0.00 2.16 0.00 96 1017.8
20260502112704 53 23 3.0 10.0 0.00 2.16 0.00 96 1017.7
20260502112433 53 348 4.0 10.0 0.00 2.16 0.00 96 1017.5
20260502112314 53 4 4.0 10.0 0.00 2.16 0.00 96 1017.5
20260502111153 53 18 5.0 11.0 0.00 2.16 0.00 96 1017.4
20260502110627 53 354 5.0 11.0 0.00 2.16 0.00 96 1017.3
20260502110123 54 30 4.0 10.0 0.00 2.17 0.00 96 1017.3
20260502105556 54 22 3.0 10.0 0.00 2.17 0.00 96 1017.2
20260502105055 54 10 3.0 7.0 0.00 2.17 0.00 96 1017.2
20260502104528 54 8 4.0 10.0 0.00 2.17 0.00 96 1017.2
20260502104024 54 25 4.0 10.0 0.00 2.17 0.00 96 1017.1
20260502103458 54 17 4.0 10.0 0.00 2.17 0.00 96 1017.0
20260502102934 54 354 5.0 10.0 0.00 2.18 0.00 95 1017.0
20260502102410 54 16 4.0 10.0 0.00 2.20 0.00 95 1017.0
20260502101845 54 341 3.0 10.0 0.00 2.23 0.00 95 1017.0
20260502101345 54 16 2.0 8.0 0.00 2.27 0.00 95 1016.9
20260502100831 54 11 2.0 8.0 0.00 2.27 0.00 95 1016.6
20260502100338 54 359 3.0 8.0 0.00 2.27 0.00 95 1016.3
20260502091500 55 21 3.0 9.0 0.00 2.34 0.00 93 1015.8
20260502090706 55 30 4.0 11.0 0.00 2.35 0.00 93 1015.7
20260502090416 55 23 4.0 11.0 0.00 2.36 0.00 93 1015.5
20260502071515 55 23 5.0 10.0 0.00 2.65 0.00 98 1015.5
20260502071012 55 37 5.0 10.0 0.00 2.67 0.00 98 1015.4
20260502070453 55 33 4.0 10.0 0.00 2.68 0.00 98 1015.5
20260502065947 55 343 5.0 13.0 0.00 2.69 0.00 98 1015.6
20260502065942 55 16 4.0 12.0 0.00 2.68 0.00 98 1015.6
20260502064942 55 41 6.0 14.0 0.00 2.70 0.00 99 1015.3
20260502064937 55 27 6.0 13.0 0.00 2.70 0.00 98 1015.5
20260502064201 55 49 8.0 20.0 0.00 2.71 0.00 99 1015.3
20260502063426 55 25 7.0 20.0 0.00 2.71 0.00 99 1015.2
20260502062923 55 21 6.0 13.0 0.00 2.71 0.00 99 1015.2
20260502062420 55 33 7.0 15.0 0.00 2.72 0.00 99 1015.3
20260502061910 55 41 7.0 15.0 0.00 2.72 0.00 99 1015.3
20260502061650 55 9 8.0 17.0 0.00 2.72 0.00 100 1015.2
20260502061110 55 13 8.0 17.0 0.00 2.72 0.00 100 1015.1
20260502060314 55 359 8.0 17.0 0.00 2.72 0.00 100 1015.1
20260502055748 55 31 6.0 17.0 0.00 2.73 0.00 100 1015.0
20260502055243 55 349 7.0 16.0 0.00 2.74 0.00 100 1015.0
20260502054740 55 4 10.0 19.0 0.00 2.77 0.00 100 1015.1
20260502054238 55 33 9.0 19.0 0.00 2.81 0.00 100 1015.1
20260502054019 55 35 8.0 21.0 0.00 2.94 0.00 100 1015.1
20260502053949 55 58 5.0 19.0 0.00 2.83 0.00 100 1015.1
20260502053903 56 41 5.0 14.0 0.00 2.85 0.00 100 1015.1
20260502053822 56 23 7.0 14.0 0.00 2.90 0.00 100 1015.2
20260502052113 55 35 8.0 21.0 0.00 2.94 0.00 100 1015.1
20260502051818 56 4 9.0 21.0 0.00 2.95 0.00 100 1015.1
20260502051318 56 23 9.0 22.0 0.00 2.96 0.00 100 1015.0
20260502050518 56 22 9.0 22.0 0.00 2.97 0.00 100 1015.0
20260502045952 56 40 8.0 17.0 0.00 2.97 2.97 100 1015.1
20260502045426 56 46 8.0 18.0 0.00 2.97 2.97 100 1015.1
20260502045402 56 12 7.0 18.0 0.00 2.97 2.97 100 1015.2
20260502044332 56 25 7.0 18.0 0.00 2.97 2.97 100 1015.3
20260502043808 56 337 8.0 18.0 0.00 2.97 2.97 100 1015.2
20260502043239 56 25 10.0 21.0 0.00 2.97 2.97 100 1015.2
20260502042738 56 12 9.0 21.0 0.00 2.97 2.97 100 1015.1
20260502042210 56 29 7.0 15.0 0.00 2.97 2.97 100 1015.1
20260502041707 56 354 7.0 15.0 0.00 2.97 2.97 100 1015.1
20260502041139 56 22 7.0 17.0 0.01 2.97 2.97 100 1015.1
20260502040637 56 354 7.0 17.0 0.01 2.97 2.97 100 1015.1
20260502040109 56 23 6.0 14.0 0.01 2.97 2.97 100 1015.1
20260502035607 56 359 6.0 17.0 0.01 2.97 2.97 100 1015.1
20260502035040 56 4 7.0 17.0 0.01 2.97 2.97 100 1014.7
20260502034515 56 33 8.0 14.0 0.01 2.97 2.97 100 1014.7
20260502033948 56 31 8.0 15.0 0.01 2.97 2.97 100 1014.8
20260502033445 56 359 7.0 16.0 0.01 2.97 2.97 100 1014.8
20260502032917 56 31 7.0 16.0 0.01 2.97 2.97 100 1014.6